TimeMST,TemperatureF,Dew PointF,Humidity,Sea Level PressureIn,VisibilityMPH,Wind Direction,Wind SpeedMPH,Gust SpeedMPH,PrecipitationIn,Events,Conditions,WindDirDegrees,DateUTC
12:53 AM,37.0,17.1,44,30.22,10.0,WNW,16.1,21.9,N/A,,Mostly Cloudy,290,2013-01-21 07:53:00
1:53 AM,37.9,16.0,41,30.18,10.0,West,20.7,31.1,N/A,,Clear,260,2013-01-21 08:53:00
2:53 AM,39.9,14.0,35,30.18,10.0,West,20.7,32.2,N/A,,Clear,260,2013-01-21 09:53:00
3:53 AM,39.9,14.0,35,30.19,10.0,WSW,23.0,34.5,N/A,,Partly Cloudy,240,2013-01-21 10:53:00
4:53 AM,39.0,12.9,34,30.21,10.0,West,21.9,32.2,N/A,,Scattered Clouds,260,2013-01-21 11:53:00
5:53 AM,37.0,12.0,36,30.21,10.0,West,23.0,32.2,N/A,,Clear,270,2013-01-21 12:53:00
6:53 AM,37.0,12.0,36,30.22,10.0,West,20.7,28.8,N/A,,Clear,260,2013-01-21 13:53:00
7:53 AM,39.0,10.0,30,30.20,10.0,WSW,21.9,31.1,N/A,,Clear,250,2013-01-21 14:53:00
8:53 AM,37.9,10.0,32,30.24,10.0,WSW,18.4,27.6,N/A,,Clear,240,2013-01-21 15:53:00
9:53 AM,44.1,10.0,25,30.20,10.0,SW,31.1,38.0,N/A,,Clear,220,2013-01-21 16:53:00
10:53 AM,46.0,10.0,23,30.18,10.0,SW,29.9,40.3,N/A,,Clear,220,2013-01-21 17:53:00
11:53 AM,46.9,10.9,23,30.15,10.0,SW,27.6,38.0,N/A,,Clear,230,2013-01-21 18:53:00
12:53 PM,50.0,10.0,20,30.09,10.0,SW,28.8,39.1,N/A,,Clear,230,2013-01-21 19:53:00
1:53 PM,50.0,10.0,20,30.05,10.0,SW,29.9,38.0,N/A,,Clear,220,2013-01-21 20:53:00
2:53 PM,48.9,9.0,20,30.03,10.0,WSW,21.9,33.4,N/A,,Clear,250,2013-01-21 21:53:00
3:53 PM,46.9,10.0,22,30.02,10.0,SW,27.6,36.8,N/A,,Clear,230,2013-01-21 22:53:00
4:53 PM,45.0,10.9,25,30.03,10.0,SW,26.5,34.5,N/A,,Clear,220,2013-01-21 23:53:00
5:53 PM,42.1,12.0,29,30.05,10.0,WSW,24.2,40.3,N/A,,Clear,250,2013-01-22 00:53:00
6:28 PM,42.8,12.2,29,30.01,10.0,SSW,35.7,49.5,N/A,,Clear,210,2013-01-22 01:28:00
6:53 PM,42.1,12.0,29,30.04,10.0,SW,36.8,49.5,N/A,,Clear,220,2013-01-22 01:53:00
7:53 PM,41.0,10.9,29,30.03,10.0,SW,40.3,54.1,N/A,,Clear,230,2013-01-22 02:53:00
8:53 PM,39.9,10.9,31,30.04,10.0,SW,35.7,51.8,N/A,,Clear,220,2013-01-22 03:53:00
9:53 PM,39.9,9.0,28,30.04,10.0,SSW,36.8,43.7,N/A,,Clear,210,2013-01-22 04:53:00
10:53 PM,39.0,8.1,28,30.04,10.0,SW,34.5,47.2,N/A,,Clear,220,2013-01-22 05:53:00
11:53 PM,39.0,8.1,28,30.03,10.0,SW,38.0,52.9,N/A,,Clear,220,2013-01-22 06:53:00